Regional Weather Roundup
Issued by NWS

Home | Current Version | Previous Version | Text Only | Print | Product List | Glossary Off
Versions: 1 2 3 4 5 6 7 8 9 10 11 12 13 14 15 16 17 18 19 20 21 22 23 24 25 26 27 28 29 30 31 32 33 34 35 36 37 38 39 40 41 42 43 44 45 46 47 48 49 50

000
ASUS44 KMEG 281600
RWRTN
TENNESSEE HOURLY STATE WEATHER ROUNDUP
NATIONAL WEATHER SERVICE MEMPHIS TN
1100 AM CDT TUE MAR 28 2017

TNZ002-004-019-021-049-052-054-088>092-281700-
WEST TENNESSEE

CITY           SKY/WX    TMP DP  RH WIND       PRES   REMARKS
MEMPHIS INTL   MOSUNNY   69  57  65 NE8       30.03
JACKSON        SUNNY     65  56  72 MISG      30.04
DYERSBURG      PTSUNNY   62  53  72 VRB5      30.07
$$

TNZ008-025-027-028-033-062-065-066-281700-
NORTH MIDDLE TENNESSEE

CITY           SKY/WX    TMP DP  RH WIND       PRES   REMARKS
NASHVILLE      PTSUNNY   65  53  65 NW10      30.03
CLARKSVILLE    CLOUDY    60  54  80 NW8       30.04S
SMYRNA         CLOUDY    62  55  77 N7          N/A
CROSSVILLE     CLOUDY    58  52  80 W10       30.04
$$

TNZ061-075-076-078-094-096-097-281700-
SOUTH MIDDLE TENNESSEE

CITY           SKY/WX    TMP DP  RH WIND       PRES   REMARKS
COLUMBIA       CLOUDY    61  61 100 VRB3      30.02
$$

TNZ017-018-042-046-047-281700-
NORTHEAST TENNESSEE

CITY           SKY/WX    TMP DP  RH WIND       PRES   REMARKS
TRI CITIES     CLOUDY    63  55  75 W12       29.99
$$

TNZ012-013-036-069-073-074-281700-
CENTRAL EAST TENNESSEE

CITY           SKY/WX    TMP DP  RH WIND       PRES   REMARKS
KNOXVILLE      CLOUDY    63  56  78 SW9       30.00
OAK RIDGE      CLOUDY    68  53  58 VRB7      30.01
GATLINBURG     CLOUDY    63  55  77 W9        30.00
$$

TNZ083-085-099-281700-
SOUTHEAST TENNESSEE

CITY           SKY/WX    TMP DP  RH WIND       PRES   REMARKS
CHATTANOOGA    PTSUNNY   66  60  81 S5        30.01
$$

SKY/WX REPORTED AS FAIR MEANS FEW OR NO CLOUDS BELOW
12 THOUSAND FEET.




USA.gov is the U.S. government's official web portal to all federal, state and local government web resources and services.